Location: Arclight Observatory
(36.5667°N, 87.3333°W)
Time: 23:34:28
(UTC-05:00)

Daily predictions for brighter satellites

Satellite Brightness Start Highest point End
(mag) Time Altitude Azimuth Time Altitude Azimuth Time Altitude Azimuth
FENGYUN 3A 3.7 20:20:58 10° SSE 20:26:17 67° ENE 20:31:37 10° N
Cosmos 1726 Rocket 3.9 20:24:04 10° N 20:28:23 47° E 20:32:37 10° SSE
H-2A R/B 2.9 20:24:55 10° SSE 20:28:49 66° ENE 20:32:46 10° N
OTV 4 2.8 20:28:07 10° WSW 20:29:56 15° SSW 20:31:45 10° S
PSLV R/B 3.7 20:27:02 10° SW 20:30:24 46° SSE 20:33:49 10° ENE
ISS -1.5 20:29:11 10° SSE 20:30:47 13° SE 20:32:23 10° E
Cosmos 2285 Rocket 4.4 20:29:02 10° N 20:35:08 48° ENE 20:41:15 10° SE
Cosmos 2233 Rocket 4.1 20:29:57 10° N 20:36:13 83° W 20:42:24 10° S
Cosmos 494 Rocket 3.9 20:33:03 10° S 20:38:06 68° ESE 20:43:12 10° NNE
CZ-2C R/B 1.1 20:36:40 10° SSE 20:38:50 37° ENE 20:41:01 10° N
CZ-4 DEB 2.9 20:36:27 10° S 20:39:40 77° W 20:42:54 10° NNW
SPOT 5 4.2 20:36:37 10° ESE 20:39:49 20° ENE 20:42:56 10° NNE
Cosmos 2058 Rocket 3.3 20:37:49 10° N 20:42:06 51° E 20:46:19 10° SSE
YAOGAN 11 4.1 20:39:58 10° SSE 20:44:20 83° ENE 20:48:40 10° N
GEOS 3 Rocket 3.7 20:39:17 10° SE 20:44:34 89° SW 20:49:50 10° NW
Cosmos 1464 Rocket 4.2 20:40:18 10° N 20:46:18 53° E 20:52:17 10° SSE
Cosmos 2237 Rocket 4.2 20:44:45 10° SW 20:49:45 33° WNW 20:54:49 10° N
ALOS 2.7 20:46:55 10° S 20:51:32 62° W 20:56:10 10° NNW
Aureole 2 Rocket 2.7 20:48:11 10° S 20:52:10 63° ESE 20:55:50 10° NNE
deb Chang Zheng 4 3.5 20:51:01 10° NNE 20:55:26 75° ESE 20:59:47 10° S
Cosmos 2278 Rocket 3.4 20:54:43 10° NW 20:59:58 40° WSW 21:05:12 10° S
Cosmos 1606 Rocket 4.4 21:00:16 10° NNW 21:04:35 51° W 21:08:49 10° SSW
Cosmos 2034 Rocket 4.2 20:58:38 10° N 21:04:54 57° E 21:10:30 13° SSE
Cosmos 1331 Rocket 4.1 20:59:58 10° NNW 21:05:10 79° WSW 21:10:15 10° SSE
Atlas Centaur 2 3.3 21:00:35 10° SW 21:07:34 44° SSE 21:15:27 10° E
H-2A R/B 2.0 21:05:22 11° SSE 21:09:22 89° NE 21:13:42 10° NNW
SeaSat 1 3.1 21:07:21 17° ESE 21:10:46 43° ENE 21:15:25 10° N
Meteor 1-15 Rocket 4.2 21:06:54 10° N 21:12:31 78° E 21:17:41 13° SSE
Cosmos 2369 Rocket 4.0 21:09:40 10° NNE 21:13:17 17° NE 21:16:29 11° E
DEBRIS 3.1 21:09:12 10° NW 21:14:14 47° NNE 21:15:34 23° E
Cosmos 1302 Rocket 4.0 21:10:05 10° NNW 21:15:20 74° ENE 21:19:13 18° SSE
PSLV R/B 3.6 21:16:10 28° SE 21:17:21 43° ENE 21:20:20 10° N
SL-16 R/B 3.5 21:12:06 10° SW 21:17:27 44° WNW 21:22:51 10° N
Cosmos 1666 2.6 21:13:36 10° N 21:17:31 85° E 21:20:22 18° S
Cosmos 1626 Rocket 3.5 21:13:51 10° S 21:18:16 70° E 21:22:40 10° NNE
CZ-4B R/B 4.0 21:14:38 10° NNE 21:19:27 40° E 21:22:53 18° SSE
Cosmos 1939 Rocket 2.9 21:17:37 17° SSE 21:20:46 87° ENE 21:24:56 10° N
COSMOS 2455 2.9 21:19:17 10° S 21:25:08 57° ESE 21:31:00 10° NE
Milstar 3 Cent rocket 3.6 21:19:22 10° W 21:25:20 25° SSW 21:27:55 18° SSE
OAO 3 Copernicus 4.4 21:24:03 10° W 21:29:00 58° SSW 21:31:35 27° SE
MetOp-B 4.3 21:28:00 24° SE 21:31:09 56° ENE 21:36:23 10° N
Cosmos 2228 3.4 21:27:14 10° NNW 21:31:36 64° W 21:35:07 15° S
APEX 3.9 21:29:45 10° NNW 21:34:00 73° WSW 21:37:25 22° SSE
ATLAS 3B R/B 3.4 21:28:16 10° S 21:35:14 39° ESE 21:42:09 10° NE
ERS-1 Rocket 4.3 21:37:34 10° SSW 21:42:09 36° W 21:46:46 10° NNW
Centaur D AC-28 3.4 21:40:13 10° WSW 21:42:41 17° SSW 21:42:46 16° SSW
Cosmos 1515 3.7 21:43:53 43° SSE 21:44:53 58° E 21:48:41 10° NNE
Envisat 3.2 21:42:41 20° S 21:46:09 68° W 21:51:14 10° NNW
Cosmos 1603 4.0 21:40:44 10° SSW 21:46:19 67° WNW 21:51:54 10° NNE
USA 234 3.5 21:45:49 24° ESE 21:49:50 60° NE 21:56:17 10° NW
Cosmos 407 Rocket 4.2 21:49:26 32° ESE 21:49:57 32° E 21:54:35 10° NE
Abrixas rocket 2.4 21:47:45 10° WNW 21:51:08 60° SW 21:51:25 57° SSW
Cosmos 1346 Rocket 3.6 21:55:59 33° ENE 21:55:59 33° ENE 21:59:05 10° NNE
Lacrosse 4 Rocket 2.7 21:59:12 24° ENE 21:59:12 24° ENE 22:01:18 10° NE
YAOGAN 6 2.5 22:02:20 65° S 22:02:50 88° WSW 22:06:36 10° NNW
USA 81 4.0 22:01:10 10° N 22:06:27 70° E 22:08:02 45° SSE
ISS -2.5 22:03:43 10° WSW 22:06:54 50° NW 22:10:05 10° NE
PSLV R/B 4.2 22:04:35 10° W 22:08:04 50° NNW 22:09:23 31° NE
Cosmos 1758 Rocket 3.9 22:10:06 46° E 22:10:06 46° E 22:14:10 10° NNE
Cosmos 1943 3.1 22:07:21 25° SSW 22:10:48 79° ESE 22:16:31 10° NNE
CZ-4 R/B 3.9 22:08:13 10° NNE 22:13:14 86° WNW 22:15:27 34° SSW
SPOT 5 4.1 22:15:34 21° SW 22:17:40 32° W 22:21:34 10° NW
Cosmos 1461 3.9 22:14:12 10° NW 22:18:03 35° WSW 22:18:39 33° SW
Cosmos 1943 Rocket 3.6 22:17:53 10° N 22:22:17 23° ENE 22:23:31 22° ENE
Landsat 7 3.8 22:23:17 58° ESE 22:23:44 61° ENE 22:28:25 10° N
Cosmos 1992 Rocket 3.9 22:21:57 10° NNW 22:27:11 82° WSW 22:28:11 59° S
SL-08 RB Rocket 3.6 22:27:20 71° S 22:27:50 85° WSW 22:32:24 10° NNW
Cosmos 1825 Rocket 4.0 22:26:46 42° SW 22:27:59 59° W 22:32:23 10° N
H-2A R/B 2.2 22:28:49 50° E 22:29:12 51° ENE 22:34:03 10° N
Cosmos 1766 4.0 22:31:13 10° N 22:34:21 45° NE 22:34:21 45° NE
SPOT 1/Viking Rocket 4.3 22:36:21 36° SW 22:37:52 46° W 22:42:50 10° NNW
Terra 1.9 22:39:33 61° ENE 22:39:33 61° ENE 22:44:14 10° N
Geosat 4.4 22:36:58 10° NNE 22:41:56 62° WNW 22:44:24 29° SW
Cosmos 1190 Rocket 4.4 22:40:31 32° SW 22:42:50 60° WNW 22:48:06 10° N
Nadezhda 4 Rocket 4.4 22:45:01 44° E 22:45:17 44° E 22:51:14 10° NNE
SeaSat 1 4.2 22:47:08 20° SW 22:48:23 22° WSW 22:52:09 10° WNW
CZ-4C R/B 4.0 22:48:46 53° W 22:48:46 53° W 22:52:39 10° NNW
Cosmos 1634 Rocket 4.5 22:45:37 10° NNW 22:51:34 53° W 22:53:38 37° SW
DMSP B5D2-2 3.9 22:47:54 10° NNE 22:53:12 86° ESE 22:53:28 81° S
ARGOS 3.9 22:52:05 37° SW 22:53:20 43° W 22:58:30 10° NNW
Atlas Centaur 2 3.1 22:49:08 10° WSW 22:57:02 57° S 22:58:15 53° SSE
Cosmos 2369 Rocket 2.2 22:52:12 10° NNW 22:57:49 66° WSW 22:58:16 63° SW
Cosmos 676 Rocket 4.1 22:58:33 64° WSW 22:59:13 73° WNW 23:04:34 10° NNE
Cosmos 1140 Rocket 3.9 23:09:16 52° NE 23:09:16 52° NE 23:13:25 10° NNE
Cosmos 1953 3.7 23:07:36 10° N 23:10:05 36° N 23:10:05 36° N
Cosmos 2279 Rocket 4.2 23:10:01 10° NNW 23:16:08 60° W 23:17:07 53° SW
COSMOS 2406 3.3 23:21:08 65° NE 23:21:08 65° NE 23:26:08 10° NNE
Cosmos 2263 4.4 23:16:08 10° NNW 23:21:29 58° W 23:21:29 58° W
ATLAS 3B R/B 3.9 23:18:36 10° WSW 23:25:55 45° NW 23:33:06 10° NNE
USA 234 4.1 23:33:09 34° WSW 23:33:09 34° WSW 23:38:51 10° WNW
Cosmos-2242 4.5 23:32:12 10° NNW 23:35:15 35° NW 23:35:15 35° NW
Lacrosse 4 Rocket 3.7 23:35:28 17° WNW 23:36:26 18° NW 23:39:21 10° N
Cosmos 1607 3.9 23:40:07 73° NE 23:40:07 73° NE 23:45:47 10° NNE
ISS 0.3 23:43:22 10° NNW 23:43:58 10° NNW 23:44:34 10° N
Cosmos 2208 Rocket 4.5 23:42:00 10° NNW 23:46:06 56° N 23:46:06 56° N
CZ-4B R/B 4.4 23:50:52 15° NNE 23:50:52 15° NNE 23:51:47 10° NNE
